Flag for India Weather past 2 weeks in Mumbai, Maharashtra, India

Now
86 °F

Broken clouds.


Feels Like: 95 °F
Forecast: 78 / 85 °F
Wind: 15 mph from West

Location: Bombay / Santacruz

Current Time: Sep 17, 2014 at 3:43:26 PM

Latest Report: Sep 17, 2014 at 3:10 PM


Visibility: 2 mi

Pressure: 29.68 "Hg

Humidity: 70%

Dew point: 75 °F

Location of MumbaiLocation

Historic Weather in Mumbai — Graph

°F

Mumbai temperature yesterday

Maximum temperature yesterday: 88 °F (at 3:40 PM)
Minimum temperature yesterday: 79 °F (at 4:40 AM)
Average temperature yesterday: 83 °F

Past Weeks' High & Low Weather Summary

 TemperatureHumidityPressure
High88 °F (Sep 7, 1:10 PM)100% (Sep 2, 9:10 PM)30.07 "Hg (Sep 2, 9:10 PM)
Low77 °F (Sep 5, 4:40 AM)62% (Sep 14, 2:10 PM)29.56 "Hg (Sep 2, 2:40 PM)
Average82 °F86%29.74 "Hg
* Reported Sep 2 2:40 PM — Sep 17 2:40 PM, Mumbai, Weather by CustomWeather, © 2014

Note: Actual official high and low records may vary slightly from our data, if they occured in-between our weather recording intervals... More about our weather records

Advertising

Mumbai weather history for previous 24 hours

 ConditionsComfort  
Time TempWeatherWind HumidityBarometerVisibility
2:40 PM
Sep 17
86 °FBroken clouds.10 mph70%29.68 "Hg2 mi
2:10 PM86 °FBroken clouds.12 mph70%29.71 "Hg2 mi
1:40 PM86 °FScattered clouds.10 mph75%29.71 "Hg2 mi
1:10 PM86 °FScattered clouds.12 mph75%29.74 "Hg2 mi
12:40 PM86 °FScattered clouds.9 mph75%29.74 "Hg2 mi
11:40 AM82 °FBroken clouds.5 mph84%29.77 "Hg1 mi
11:10 AM81 °FMore clouds than sun.5 mph94%29.77 "Hg1 mi
10:10 AM79 °FRain. More clouds than sun.7 mph94%29.77 "Hg1 mi
8:10 AM81 °FBroken clouds.7 mph94%29.77 "Hg1 mi
7:40 AM81 °FBroken clouds.5 mph89%29.74 "Hg1 mi
7:10 AM81 °FScattered clouds.5 mph89%29.74 "Hg1 mi
6:40 AM81 °FPartly cloudy.5 mph89%29.71 "Hg1 mi
6:10 AM81 °FPartly cloudy.5 mph89%29.71 "Hg1 mi
4:10 AM81 °FPassing clouds.No wind89%29.68 "Hg2 mi
3:40 AM81 °FPassing clouds.5 mph89%29.68 "Hg2 mi
2:40 AM82 °FHaze.6 mph79%29.71 "Hg2 mi
2:10 AM82 °FHaze.5 mph79%29.71 "Hg2 mi
1:40 AM82 °FHaze.6 mph79%29.71 "Hg2 mi
1:10 AM82 °FHaze.5 mph79%29.74 "Hg2 mi
12:40 AM82 °FPassing clouds.6 mph79%29.74 "Hg2 mi
12:10 AM84 °FPassing clouds.6 mph74%29.74 "Hg2 mi
11:40 PM
Sep 16
82 °FPassing clouds.5 mph79%29.74 "Hg2 mi
10:40 PM84 °FPassing clouds.6 mph74%29.77 "Hg2 mi
9:40 PM84 °FPassing clouds.6 mph74%29.77 "Hg2 mi
9:10 PM84 °FPassing clouds.6 mph74%29.77 "Hg2 mi
8:40 PM84 °FPassing clouds.7 mph74%29.74 "Hg2 mi
8:10 PM84 °FPassing clouds.8 mph74%29.74 "Hg2 mi
7:40 PM84 °FPassing clouds.8 mph74%29.74 "Hg2 mi
6:40 PM84 °FScattered clouds.7 mph74%29.71 "Hg2 mi
6:10 PM84 °FScattered clouds.9 mph74%29.71 "Hg4 mi
4:10 PM88 °FScattered clouds.12 mph62%29.68 "HgN/A
3:40 PM88 °FScattered clouds.12 mph62%29.71 "HgN/A
Weather by CustomWeather, © 2014

See weather overviewHow to use our weather pages